This is the latest recevied weather packets stored in our database for station/object OK0EK-11. If no packets are shown the sender has not sent any weather packets the latest 1 day(s).
| Time | Temp. | Humidity | Pressure | Rain* | Wind** | Luminosity | Snow |
|---|---|---|---|---|---|---|---|
| 1778056575 | 13.89° C | 73% | 1011.5 hPa | - | - | - | - |
| 1778054776 | 13.33° C | 75% | 1011.4 hPa | - | - | - | - |
| 1778054177 | 12.78° C | 76% | 1011.1 hPa | - | - | - | - |
| 1778053577 | 12.78° C | 77% | 1011.2 hPa | - | - | - | - |
| 1778052378 | 12.22° C | 78% | 1011.1 hPa | - | - | - | - |
| 1778051778 | 12.22° C | 78% | 1011.1 hPa | - | - | - | - |
| 1778051178 | 12.22° C | 79% | 1011.1 hPa | - | - | - | - |
| 1778049979 | 11.11° C | 81% | 1011.2 hPa | - | - | - | - |
| 1778049379 | 11.11° C | 81% | 1010.9 hPa | - | - | - | - |
| 1778047581 | 10° C | 83% | 1010.6 hPa | - | - | - | - |
| 1778046381 | 10° C | 84% | 1010.4 hPa | - | - | - | - |
| 1778045790 | 9.44° C | 85% | 1010.3 hPa | - | - | - | - |
| 1778045184 | 9.44° C | 86% | 1010.2 hPa | - | - | - | - |
| 1778044584 | 8.89° C | 86% | 1010.3 hPa | - | - | - | - |
| 1778043984 | 8.89° C | 86% | 1010.2 hPa | - | - | - | - |
| 1778042785 | 8.89° C | 86% | 1010 hPa | - | - | - | - |
| 1778042185 | 8.89° C | 85% | 1009.8 hPa | - | - | - | - |
| 1778041585 | 8.89° C | 85% | 1009.8 hPa | - | - | - | - |
| 1778040986 | 8.89° C | 86% | 1009.6 hPa | - | - | - | - |
| 1778040386 | 8.89° C | 86% | 1009.5 hPa | - | - | - | - |
| 1778039787 | 8.33° C | 86% | 1009.6 hPa | - | - | - | - |
| 1778039187 | 8.33° C | 87% | 1009.3 hPa | - | - | - | - |
| 1778037989 | 8.33° C | 88% | 1009.2 hPa | - | - | - | - |
| 1778036798 | 8.33° C | 87% | 1009.3 hPa | - | - | - | - |
| 1778036191 | 8.33° C | 87% | 1009.3 hPa | - | - | - | - |
* Rain since midnight (hover to see other rain measurements)
** Current wind speed in m/s (hover to see current wind gust speed)